This is the latest recevied weather packets stored in our database for station/object K5MGY. If no packets are shown the sender has not sent any weather packets the latest 10 day(s).
| Time | Temp. | Humidity | Pressure | Rain* | Wind** | Luminosity | Snow |
|---|---|---|---|---|---|---|---|
| 1777770811 | 20.56° C | 44% | 1042.7 hPa | 0 mm | - | 1 W/m² | - |
| 1777770507 | 21.11° C | 43% | 1042.5 hPa | 0 mm | - | 2 W/m² | - |
| 1777770205 | 21.11° C | 42% | 1042.7 hPa | 0 mm | - | 4 W/m² | - |
| 1777769901 | 21.67° C | 42% | 1042.7 hPa | 0 mm | - | 5 W/m² | - |
| 1777769599 | 22.22° C | 40% | 1042.7 hPa | 0 mm | - | 7 W/m² | - |
| 1777769295 | 22.22° C | 39% | 1042.6 hPa | 0 mm | - | 9 W/m² | - |
| 1777768993 | 22.78° C | 39% | 1042.5 hPa | 0 mm | - | 11 W/m² | - |
| 1777768690 | 22.78° C | 37% | 1042.5 hPa | 0 mm | - | 13 W/m² | - |
| 1777768387 | 23.33° C | 37% | 1042.6 hPa | 0 mm | - | 15 W/m² | - |
| 1777768084 | 23.33° C | 34% | 1042.6 hPa | 0 mm | - | 16 W/m² | - |
| 1777767780 | 23.33° C | 35% | 1042.6 hPa | 0 mm | - | 17 W/m² | - |
| 1777767477 | 23.89° C | 36% | 1042.6 hPa | 0 mm | - | 19 W/m² | - |
| 1777767173 | 23.89° C | 36% | 1042.6 hPa | 0 mm | - | 21 W/m² | - |
| 1777766871 | 24.44° C | 35% | 1042.5 hPa | 0 mm | - | 24 W/m² | - |
| 1777766568 | 24.44° C | 35% | 1042.6 hPa | 0 mm | - | 26 W/m² | - |
| 1777766265 | 24.44° C | 35% | 1042.6 hPa | 0 mm | - | 52 W/m² | - |
| 1777765963 | 24.44° C | 32% | 1042.6 hPa | 0 mm | - | 26 W/m² | - |
| 1777765659 | 24.44° C | 33% | 1042.6 hPa | 0 mm | - | 26 W/m² | - |
| 1777765356 | 24.44° C | 33% | 1042.7 hPa | 0 mm | - | 28 W/m² | - |
| 1777765052 | 24.44° C | 33% | 1042.7 hPa | 0 mm | - | 28 W/m² | - |
| 1777764749 | 24.44° C | 34% | 1042.5 hPa | 0 mm | - | 29 W/m² | - |
| 1777764445 | 24.44° C | 33% | 1042.7 hPa | 0 mm | - | 30 W/m² | - |
| 1777764142 | 24.44° C | 33% | 1042.7 hPa | 0 mm | - | 30 W/m² | - |
| 1777763839 | 24.44° C | 33% | 1042.9 hPa | 0 mm | - | 32 W/m² | - |
| 1777763537 | 25° C | 33% | 1042.9 hPa | 0 mm | - | 32 W/m² | - |
* Rain latest hour (hover to see other rain measurements)
** Current wind speed in m/s (hover to see current wind gust speed)